Time,TemperatureF,DewpointF,PressureIn,WindDirection,WindDirectionDegrees,WindSpeedMPH,WindSpeedGustMPH,Humidity,HourlyPrecipIn,Conditions,Clouds,dailyrainin,SolarRadiationWatts/m^2,SoftwareType,DateUTC
2013-03-21 00:10:00,77.6,71.0,29.89,SE,134,6.0,7.0,81,0.00,,,0.00,0,weatherlink.com 1.10,2013-03-21 04:10:00,
2013-03-21 00:25:00,77.5,71.0,29.89,ESE,118,4.0,8.0,81,0.00,,,0.00,0,weatherlink.com 1.10,2013-03-21 04:25:00,
2013-03-21 00:40:00,77.3,71.0,29.88,ESE,119,5.0,8.0,80,0.00,,,0.00,0,weatherlink.com 1.10,2013-03-21 04:40:00,
2013-03-21 00:55:00,77.0,70.0,29.88,ESE,120,4.0,6.0,79,0.00,,,0.00,0,weatherlink.com 1.10,2013-03-21 04:55:00,
2013-03-21 01:10:00,77.0,70.0,29.87,SE,130,4.0,7.0,79,0.00,,,0.00,0,weatherlink.com 1.10,2013-03-21 05:10:00,
2013-03-21 01:25:00,76.9,70.0,29.87,ENE,67,1.0,8.0,79,0.00,,,0.00,0,weatherlink.com 1.10,2013-03-21 05:25:00,
2013-03-21 01:40:00,76.9,71.0,29.87,ENE,67,1.0,3.0,81,0.00,,,0.00,0,weatherlink.com 1.10,2013-03-21 05:40:00,
2013-03-21 01:55:00,76.4,70.0,29.86,ENE,67,0.0,5.0,81,0.00,,,0.00,0,weatherlink.com 1.10,2013-03-21 05:55:00,
2013-03-21 02:10:00,76.3,70.0,29.86,ENE,67,2.0,4.0,82,0.00,,,0.00,0,weatherlink.com 1.10,2013-03-21 06:10:00,
2013-03-21 02:25:00,76.3,70.0,29.85,East,101,5.0,7.0,81,0.00,,,0.00,0,weatherlink.com 1.10,2013-03-21 06:25:00,
2013-03-21 02:40:00,76.2,70.0,29.85,ESE,115,2.0,7.0,80,0.00,,,0.00,0,weatherlink.com 1.10,2013-03-21 06:40:00,
2013-03-21 02:55:00,76.2,70.0,29.85,SE,126,4.0,9.0,80,0.00,,,0.00,0,weatherlink.com 1.10,2013-03-21 06:55:00,
2013-03-21 03:10:00,76.3,70.0,29.84,SE,134,3.0,6.0,80,0.00,,,0.00,0,weatherlink.com 1.10,2013-03-21 07:10:00,
2013-03-21 03:25:00,76.3,70.0,29.84,SE,131,2.0,6.0,80,0.00,,,0.00,0,weatherlink.com 1.10,2013-03-21 07:25:00,
2013-03-21 03:40:00,76.1,70.0,29.85,East,98,1.0,8.0,80,0.00,,,0.00,0,weatherlink.com 1.10,2013-03-21 07:40:00,
2013-03-21 03:55:00,76.1,69.0,29.84,ESE,120,2.0,5.0,79,0.00,,,0.00,0,weatherlink.com 1.10,2013-03-21 07:55:00,
2013-03-21 04:10:00,76.4,69.0,29.84,East,94,2.0,8.0,79,0.00,,,0.00,0,weatherlink.com 1.10,2013-03-21 08:10:00,
2013-03-21 04:25:00,76.4,69.0,29.85,SE,130,1.0,8.0,78,0.00,,,0.00,0,weatherlink.com 1.10,2013-03-21 08:25:00,
2013-03-21 04:40:00,76.6,69.0,29.85,ESE,123,1.0,4.0,78,0.00,,,0.00,0,weatherlink.com 1.10,2013-03-21 08:40:00,
2013-03-21 04:55:00,76.7,69.0,29.85,ESE,123,1.0,5.0,78,0.00,,,0.00,0,weatherlink.com 1.10,2013-03-21 08:55:00,
2013-03-21 05:10:00,76.6,69.0,29.85,ESE,123,1.0,4.0,78,0.00,,,0.00,0,weatherlink.com 1.10,2013-03-21 09:10:00,
2013-03-21 05:25:00,76.7,70.0,29.86,ESE,123,1.0,4.0,79,0.00,,,0.00,0,weatherlink.com 1.10,2013-03-21 09:25:00,
2013-03-21 05:40:00,76.7,70.0,29.86,ESE,123,2.0,5.0,79,0.00,,,0.00,0,weatherlink.com 1.10,2013-03-21 09:40:00,
2013-03-21 05:55:00,76.8,70.0,29.87,SE,124,1.0,3.0,79,0.00,,,0.00,0,weatherlink.com 1.10,2013-03-21 09:55:00,
2013-03-21 06:10:00,76.7,70.0,29.88,SE,124,2.0,5.0,79,0.00,,,0.00,0,weatherlink.com 1.10,2013-03-21 10:10:00,
2013-03-21 06:25:00,76.7,71.0,29.88,SE,124,1.0,3.0,81,0.00,,,0.00,0,weatherlink.com 1.10,2013-03-21 10:25:00,
2013-03-21 06:40:00,76.4,70.0,29.89,SE,124,2.0,5.0,81,0.00,,,0.00,14,weatherlink.com 1.10,2013-03-21 10:40:00,
2013-03-21 06:55:00,76.6,70.0,29.90,SE,124,3.0,5.0,80,0.00,,,0.00,35,weatherlink.com 1.10,2013-03-21 10:55:00,
2013-03-21 07:10:00,77.0,70.0,29.90,SE,124,3.0,5.0,79,0.00,,,0.00,56,weatherlink.com 1.10,2013-03-21 11:10:00,
2013-03-21 07:25:00,77.5,71.0,29.90,SE,124,3.0,4.0,79,0.00,,,0.00,95,weatherlink.com 1.10,2013-03-21 11:25:00,
2013-03-21 07:40:00,78.5,71.0,29.91,East,98,7.0,7.0,77,0.00,,,0.00,279,weatherlink.com 1.10,2013-03-21 11:40:00,
2013-03-21 07:55:00,79.7,71.0,29.92,East,83,5.0,10.0,74,0.00,,,0.00,357,weatherlink.com 1.10,2013-03-21 11:55:00,
2013-03-21 08:10:00,80.4,71.0,29.93,ESE,117,9.0,11.0,72,0.00,,,0.00,178,weatherlink.com 1.10,2013-03-21 12:10:00,
2013-03-21 08:26:00,79.9,71.0,29.93,East,94,6.0,15.0,73,0.00,,,0.00,176,weatherlink.com 1.10,2013-03-21 12:26:00,
2013-03-21 08:41:00,80.4,71.0,29.94,ESE,121,7.0,10.0,73,0.00,,,0.00,265,weatherlink.com 1.10,2013-03-21 12:41:00,
2013-03-21 08:56:00,81.0,71.0,29.95,ESE,114,7.0,8.0,72,0.00,,,0.00,301,weatherlink.com 1.10,2013-03-21 12:56:00,
2013-03-21 09:11:00,81.7,71.0,29.95,ESE,109,1.0,12.0,70,0.00,,,0.00,318,weatherlink.com 1.10,2013-03-21 13:11:00,
2013-03-21 09:26:00,83.0,71.0,29.95,ESE,107,8.0,11.0,67,0.00,,,0.00,262,weatherlink.com 1.10,2013-03-21 13:26:00,
2013-03-21 09:56:00,84.9,71.0,29.95,SE,129,8.0,14.0,63,0.00,,,0.00,204,weatherlink.com 1.10,2013-03-21 13:56:00,
2013-03-21 10:11:00,85.9,71.0,29.95,SE,128,8.0,11.0,62,0.00,,,0.00,452,weatherlink.com 1.10,2013-03-21 14:11:00,
2013-03-21 10:26:00,85.9,72.0,29.96,East,84,0.0,8.0,64,0.00,,,0.00,327,weatherlink.com 1.10,2013-03-21 14:26:00,
2013-03-21 10:41:00,86.1,72.0,29.95,ENE,64,5.0,10.0,63,0.00,,,0.00,404,weatherlink.com 1.10,2013-03-21 14:41:00,
2013-03-21 10:56:00,86.0,71.0,29.95,East,85,2.0,12.0,62,0.00,,,0.00,911,weatherlink.com 1.10,2013-03-21 14:56:00,
2013-03-21 11:11:00,86.8,72.0,29.95,North,350,1.0,11.0,62,0.00,,,0.00,559,weatherlink.com 1.10,2013-03-21 15:11:00,
2013-03-21 11:26:00,87.3,73.0,29.94,ENE,78,4.0,10.0,63,0.00,,,0.00,758,weatherlink.com 1.10,2013-03-21 15:26:00,
2013-03-21 11:41:00,87.6,73.0,29.93,NW,320,6.0,10.0,63,0.00,,,0.00,128,weatherlink.com 1.10,2013-03-21 15:41:00,
2013-03-21 11:56:00,86.6,72.0,29.92,NNE,12,6.0,8.0,63,0.00,,,0.00,172,weatherlink.com 1.10,2013-03-21 15:56:00,
2013-03-21 12:11:00,85.9,73.0,29.91,NW,311,1.0,9.0,65,0.00,,,0.00,1044,weatherlink.com 1.10,2013-03-21 16:11:00,
2013-03-21 12:26:00,87.9,74.0,29.90,NNE,30,2.0,7.0,63,0.00,,,0.00,997,weatherlink.com 1.10,2013-03-21 16:26:00,
2013-03-21 12:41:00,92.3,71.0,29.89,ESE,118,9.0,11.0,50,0.00,,,0.00,997,weatherlink.com 1.10,2013-03-21 16:41:00,
2013-03-21 13:11:00,91.6,70.0,29.87,South,185,1.0,5.0,49,0.00,,,0.00,216,weatherlink.com 1.10,2013-03-21 17:11:00,
2013-03-21 13:41:00,93.1,71.0,29.86,SE,133,4.0,11.0,48,0.00,,,0.00,986,weatherlink.com 1.10,2013-03-21 17:41:00,
2013-03-21 13:56:00,92.9,70.0,29.85,ESE,121,2.0,14.0,48,0.00,,,0.00,425,weatherlink.com 1.10,2013-03-21 17:56:00,
2013-03-21 14:11:00,93.0,70.0,29.84,South,181,6.0,15.0,47,0.00,,,0.00,1139,weatherlink.com 1.10,2013-03-21 18:11:00,
2013-03-21 14:26:00,91.9,69.0,29.84,SE,130,8.0,14.0,48,0.00,,,0.00,392,weatherlink.com 1.10,2013-03-21 18:26:00,
2013-03-21 14:41:00,92.0,70.0,29.83,SSE,153,1.0,14.0,48,0.00,,,0.00,1053,weatherlink.com 1.10,2013-03-21 18:41:00,
2013-03-21 14:56:00,93.5,70.0,29.83,SSE,156,5.0,15.0,47,0.00,,,0.00,817,weatherlink.com 1.10,2013-03-21 18:56:00,
2013-03-21 15:11:00,93.0,71.0,29.82,SE,130,5.0,8.0,48,0.00,,,0.00,304,weatherlink.com 1.10,2013-03-21 19:11:00,
2013-03-21 15:26:00,91.1,71.0,29.82,SE,134,8.0,17.0,51,0.00,,,0.00,148,weatherlink.com 1.10,2013-03-21 19:26:00,
2013-03-21 15:41:00,91.5,71.0,29.82,SSE,161,9.0,12.0,51,0.00,,,0.00,650,weatherlink.com 1.10,2013-03-21 19:41:00,
2013-03-21 15:56:00,90.9,71.0,29.81,SE,131,1.0,18.0,52,0.00,,,0.00,443,weatherlink.com 1.10,2013-03-21 19:56:00,
2013-03-21 16:11:00,88.1,71.0,29.82,South,180,8.0,19.0,57,0.00,,,0.00,65,weatherlink.com 1.10,2013-03-21 20:11:00,
2013-03-21 16:26:00,87.2,70.0,29.82,East,95,2.0,17.0,57,0.00,,,0.00,58,weatherlink.com 1.10,2013-03-21 20:26:00,
2013-03-21 16:42:00,86.8,70.0,29.82,SE,134,12.0,14.0,57,0.00,,,0.00,63,weatherlink.com 1.10,2013-03-21 20:42:00,
2013-03-21 17:12:00,86.1,71.0,29.83,South,185,4.0,19.0,60,0.00,,,0.00,49,weatherlink.com 1.10,2013-03-21 21:12:00,
2013-03-21 17:27:00,85.2,70.0,29.83,SE,137,4.0,18.0,61,0.00,,,0.00,35,weatherlink.com 1.10,2013-03-21 21:27:00,
2013-03-21 17:42:00,84.8,71.0,29.84,East,96,8.0,12.0,63,0.00,,,0.00,26,weatherlink.com 1.10,2013-03-21 21:42:00,
2013-03-21 17:57:00,84.4,71.0,29.85,SE,136,7.0,13.0,64,0.00,,,0.00,18,weatherlink.com 1.10,2013-03-21 21:57:00,
2013-03-21 18:12:00,84.1,71.0,29.86,SE,139,8.0,14.0,64,0.00,,,0.00,12,weatherlink.com 1.10,2013-03-21 22:12:00,
2013-03-21 18:27:00,83.8,71.0,29.86,South,175,1.0,11.0,65,0.00,,,0.00,7,weatherlink.com 1.10,2013-03-21 22:27:00,
2013-03-21 18:42:00,83.3,73.0,29.87,South,182,3.0,7.0,70,0.00,,,0.00,0,weatherlink.com 1.10,2013-03-21 22:42:00,
2013-03-21 18:57:00,82.6,71.0,29.88,ESE,112,3.0,6.0,69,0.00,,,0.00,0,weatherlink.com 1.10,2013-03-21 22:57:00,
2013-03-21 19:12:00,82.3,72.0,29.89,SE,136,3.0,6.0,70,0.00,,,0.00,0,weatherlink.com 1.10,2013-03-21 23:12:00,
2013-03-21 19:27:00,82.1,72.0,29.89,South,178,1.0,7.0,71,0.00,,,0.00,0,weatherlink.com 1.10,2013-03-21 23:27:00,
2013-03-21 19:42:00,82.0,71.0,29.90,South,184,3.0,6.0,70,0.00,,,0.00,0,weatherlink.com 1.10,2013-03-21 23:42:00,
2013-03-21 19:57:00,81.9,72.0,29.90,SSE,164,0.0,6.0,71,0.00,,,0.00,0,weatherlink.com 1.10,2013-03-21 23:57:00,
2013-03-21 20:12:00,81.9,71.0,29.91,SSW,204,0.0,4.0,70,0.00,,,0.00,0,weatherlink.com 1.10,2013-03-22 00:12:00,
2013-03-21 20:27:00,82.1,74.0,29.91,SSW,213,0.0,5.0,75,0.00,,,0.00,0,weatherlink.com 1.10,2013-03-22 00:27:00,
2013-03-21 20:42:00,81.3,73.0,29.91,SSW,192,0.0,3.0,76,0.00,,,0.00,0,weatherlink.com 1.10,2013-03-22 00:42:00,
2013-03-21 20:57:00,80.9,73.0,29.92,SSW,209,0.0,3.0,77,0.00,,,0.00,0,weatherlink.com 1.10,2013-03-22 00:57:00,
2013-03-21 21:12:00,80.0,71.0,29.92,SSW,209,0.0,3.0,74,0.00,,,0.00,0,weatherlink.com 1.10,2013-03-22 01:12:00,
2013-03-21 21:27:00,80.1,70.0,29.92,South,185,2.0,4.0,72,0.00,,,0.00,0,weatherlink.com 1.10,2013-03-22 01:27:00,
2013-03-21 21:42:00,80.2,70.0,29.93,South,182,0.0,4.0,71,0.00,,,0.00,0,weatherlink.com 1.10,2013-03-22 01:42:00,
2013-03-21 21:57:00,80.6,70.0,29.93,SSE,147,4.0,5.0,70,0.00,,,0.00,0,weatherlink.com 1.10,2013-03-22 01:57:00,
2013-03-21 22:12:00,80.6,70.0,29.93,ESE,105,3.0,5.0,71,0.00,,,0.00,0,weatherlink.com 1.10,2013-03-22 02:12:00,
2013-03-21 22:27:00,80.3,71.0,29.93,SSE,168,2.0,5.0,74,0.00,,,0.00,0,weatherlink.com 1.10,2013-03-22 02:27:00,
2013-03-21 22:42:00,79.9,71.0,29.93,SSE,159,4.0,6.0,75,0.00,,,0.00,0,weatherlink.com 1.10,2013-03-22 02:42:00,
2013-03-21 22:57:00,79.5,71.0,29.93,SE,144,3.0,5.0,76,0.00,,,0.00,0,weatherlink.com 1.10,2013-03-22 02:57:00,
2013-03-21 23:12:00,79.1,71.0,29.93,SSE,159,2.0,6.0,76,0.00,,,0.00,0,weatherlink.com 1.10,2013-03-22 03:12:00,
2013-03-21 23:27:00,79.0,71.0,29.93,SSE,157,1.0,4.0,77,0.00,,,0.00,0,weatherlink.com 1.10,2013-03-22 03:27:00,
2013-03-21 23:42:00,78.8,71.0,29.93,SSE,159,3.0,3.0,78,0.00,,,0.00,0,weatherlink.com 1.10,2013-03-22 03:42:00,
2013-03-21 23:57:00,78.6,71.0,29.93,SSE,159,0.0,2.0,78,0.00,,,0.00,0,weatherlink.com 1.10,2013-03-22 03:57:00,